RH
8 6 7 13 19 22 23 24 26 27 27 25 18 14 20 27 27 38 62 74 81 93 102 103 92 79 70 59 52 44 33 29 21 16 14 10 10 5 4 5 -2 27 86 107 97 81 71 80 92 99 102 96 93 76 42 23 40 79 100 103 105 98 95 100 100 99 87 79 94 99 96 101 100 101
10 7 8 15 20 24 26 27 29 29 27 26 23 19 23 32 29 34 53 65 75 88 98 102 93 81 72 59 51 43 34 28 20 14 11 8 9 5 4 6 -2 25 84 106 95 81 72 77 85 97 104 100 101 96 69 39 38 69 91 99 106 96 87 99 104 100 98 97 101 100 98 101 99 101
11 9 10 15 22 28 32 35 36 36 31 27 26 23 28 35 32 34 48 57 71 85 92 97 93 83 73 61 51 43 33 26 19 14 10 7 9 4 5 7 -3 29 89 104 97 96 88 82 84 91 100 101 103 105 92 70 66 75 72 71 89 95 91 100 103 100 100 100 101 102 99 101 100 100
12 11 11 17 29 36 40 41 40 40 37 31 26 25 32 37 33 36 47 54 68 81 85 92 95 85 72 62 53 42 32 24 17 13 9 7 9 5 6 6 0 38 95 103 97 100 95 94 94 92 97 99 99 98 88 80 85 95 87 67 60 63 73 90 99 97 99 99 100 102 100 95 97 101
13 12 12 22 38 44 44 43 40 38 38 34 28 26 32 38 36 38 47 52 62 75 82 91 96 87 73 62 52 40 29 21 15 12 9 8 9 6 7 4 6 49 97 101 98 102 97 99 101 97 99 98 94 88 78 71 72 87 105 101 80 64 64 77 83 82 90 101 100 101 101 93 92 102
14 13 14 26 43 49 46 45 42 37 36 36 31 27 29 37 41 43 51 53 56 72 88 95 94 86 74 62 50 37 26 18 14 11 9 9 9 8 9 4 8 51 96 101 98 102 100 99 100 100 100 99 98 95 90 83 71 69 90 107 104 95 87 82 75 65 71 92 102 101 99 96 95 100
15 13 16 28 43 48 47 47 46 40 36 35 33 29 27 35 46 52 59 61 58 70 91 97 92 85 75 62 47 32 23 16 12 11 9 9 10 9 10 6 6 40 86 101 99 100 100 99 101 101 99 98 100 99 99 98 86 75 85 101 103 101 100 97 91 75 61 72 97 104 98 98 100 99
16 14 18 31 44 48 46 47 48 45 38 33 32 31 26 32 50 64 71 74 70 75 92 99 93 85 74 60 43 28 19 14 11 11 9 9 11 10 10 8 4 26 71 99 100 99 100 100 101 100 99 99 100 99 99 99 97 87 78 82 87 87 87 93 100 97 79 73 89 101 100 99 100 100
16 14 20 33 44 49 49 46 45 45 42 37 32 30 28 31 53 76 83 83 81 83 95 100 95 86 73 56 39 23 16 13 11 11 10 9 11 12 12 11 5 14 53 90 100 98 100 100 100 99 98 99 99 100 100 98 102 93 60 46 65 78 75 77 85 90 91 92 93 98 101 100 100 101
16 14 21 33 42 46 50 48 44 43 43 41 35 31 29 33 57 87 96 93 89 87 94 99 96 87 72 52 34 20 14 13 12 11 10 10 12 13 13 12 8 9 36 75 95 98 100 100 100 99 98 100 100 100 102 99 102 98 70 59 82 97 88 83 83 80 80 85 91 99 104 101 99 101
17 13 20 34 42 44 47 48 45 42 42 44 40 34 30 36 63 94 104 100 95 89 91 97 96 86 68 47 30 18 14 13 12 11 11 11 12 14 14 14 11 8 23 57 85 97 101 101 100 100 99 101 101 100 102 101 101 102 96 95 102 100 89 83 82 85 82 75 79 92 99 99 100 100
18 13 17 33 44 45 45 48 47 44 42 45 45 39 31 37 66 96 103 102 101 94 92 96 94 83 64 44 27 17 14 14 12 12 12 13 12 14 16 16 13 9 14 38 70 92 100 101 100 101 100 101 101 99 100 101 100 102 103 102 98 89 84 80 75 79 83 77 75 84 91 95 98 98
18 14 15 25 38 44 45 46 48 46 43 44 46 45 34 33 62 94 102 102 105 99 94 96 92 78 59 41 27 17 14 14 13 13 13 14 14 14 17 17 14 12 11 24 54 82 97 100 99 100 100 100 100 98 99 100 101 101 99 100 99 91 86 86 81 76 78 74 71 76 87 97 100 99
19 14 13 16 26 39 44 44 46 47 45 44 45 47 39 31 55 91 102 102 106 104 98 95 89 76 57 39 25 16 15 15 14 15 14 15 16 15 17 16 15 14 11 17 42 70 88 94 97 100 101 100 99 98 99 100 101 101 99 100 102 98 92 92 91 88 89 85 74 69 78 91 97 99
19 14 13 12 15 29 43 46 45 46 48 48 45 47 44 32 47 84 101 100 104 105 100 93 86 75 57 37 23 15 15 16 15 15 15 16 17 17 17 15 15 15 12 15 29 50 72 86 92 99 102 100 99 98 99 102 101 100 100 99 99 100 99 98 94 95 102 101 91 83 82 86 92 97
20 15 13 12 10 20 38 49 48 45 52 56 47 46 48 35 42 77 100 101 103 106 100 90 83 74 57 36 21 16 15 16 16 16 16 18 19 19 17 15 15 15 13 15 19 29 51 73 84 94 100 100 99 99 99 101 101 99 100 100 98 100 104 100 93 94 101 102 101 99 95 94 97 100
19 16 14 12 11 14 28 48 53 46 55 65 53 47 51 39 39 72 98 101 104 106 99 88 81 74 57 36 21 16 16 16 16 17 18 20 19 19 18 16 16 16 14 15 17 19 33 53 70 83 93 95 98 100 100 100 99 99 100 101 99 100 102 96 87 88 94 95 96 97 91 88 91 97
17 16 14 12 12 11 23 49 56 47 59 74 61 50 53 43 37 63 93 101 102 104 100 91 83 72 56 36 21 17 17 16 16 18 19 20 20 19 19 19 18 19 16 14 15 17 22 34 49 67 84 92 96 99 100 99 98 99 100 101 101 100 100 96 90 92 93 86 84 84 82 83 86 90
16 15 13 12 12 11 24 52 56 48 65 83 70 57 58 48 36 54 86 101 100 101 101 96 85 71 55 37 22 17 18 17 16 18 18 19 19 18 19 20 20 19 18 16 15 15 18 23 30 46 71 87 93 97 99 99 99 100 100 101 101 100 100 100 98 95 91 83 76 70 72 86 95 94
16 15 13 13 13 10 27 53 55 52 71 87 79 70 64 52 39 48 79 100 100 100 102 96 85 71 56 39 24 17 19 18 16 18 18 18 19 18 18 19 19 18 17 16 15 14 16 20 22 31 53 74 84 90 98 101 99 99 100 101 101 97 91 90 88 81 76 76 72 63 63 80 97 100
17 15 13 13 12 10 28 53 56 58 77 88 88 85 73 55 42 46 73 97 101 100 102 95 85 73 58 42 26 18 19 19 18 19 19 20 20 20 20 21 20 20 19 18 17 14 13 18 21 24 38 58 71 79 91 99 99 99 100 100 101 98 86 74 67 58 51 51 52 54 63 78 92 101
17 15 13 14 11 12 31 53 59 67 83 91 96 97 81 60 46 46 69 95 101 100 101 96 86 75 61 45 28 19 19 20 20 20 21 21 21 19 20 21 20 21 23 23 22 18 14 15 18 21 29 43 57 66 78 91 95 97 100 99 99 102 94 74 55 41 33 30 34 54 79 90 94 101
17 15 15 14 11 13 31 53 66 78 88 94 101 102 88 68 50 43 62 92 102 100 101 98 88 76 64 48 31 20 19 21 21 22 22 22 21 20 20 20 19 21 24 26 25 22 19 15 15 18 22 31 43 52 63 79 89 93 99 101 99 101 99 83 60 40 28 22 26 53 88 102 99 100
17 15 16 15 11 13 30 56 77 87 92 95 101 103 94 78 54 39 57 91 104 102 101 98 89 77 65 52 36 23 19 21 22 23 23 23 22 22 21 20 19 21 23 24 23 21 19 16 14 15 18 23 33 41 49 65 81 89 96 101 102 101 100 93 78 56 37 25 23 39 71 95 102 101
19 17 17 15 12 13 30 61 85 92 94 96 99 103 101 84 55 39 60 95 107 103 101 99 90 79 66 54 40 26 20 21 22 23 24 24 24 24 23 20 18 19 20 19 17 14 14 13 12 13 15 18 25 33 41 54 69 81 91 99 102 101 101 99 94 80 57 36 25 29 52 81 99 102
20 20 18 14 12 12 28 63 89 95 95 96 98 103 104 87 57 41 62 95 106 102 103 100 91 80 66 54 44 31 22 20 22 23 23 23 24 26 24 19 16 16 16 14 12 10 10 11 11 11 12 14 18 26 35 45 58 71 83 93 99 102 101 100 100 98 83 59 36 28 42 69 91 101
23 22 17 13 12 12 28 63 90 96 94 93 98 104 102 87 61 43 60 95 105 101 103 101 90 79 66 55 47 36 26 21 21 23 23 22 25 28 26 19 14 14 14 12 11 11 11 11 12 11 10 11 13 18 27 37 48 59 70 81 91 98 102 100 98 100 100 89 65 46 47 64 82 96
24 20 14 13 12 11 29 64 90 96 93 92 100 105 99 88 65 45 62 97 105 100 103 100 88 77 65 55 48 39 30 24 21 22 23 22 26 31 27 18 13 12 13 12 11 11 11 12 12 11 10 9 9 12 18 28 39 48 57 67 77 87 96 100 100 98 100 101 92 78 75 81 88 97
21 16 12 12 12 11 29 61 85 93 91 92 100 101 94 87 65 46 66 99 104 100 104 99 86 75 64 54 48 42 36 29 23 22 23 23 30 34 27 16 12 13 14 13 12 12 12 12 13 12 10 10 9 8 11 18 28 39 47 54 63 73 83 92 99 100 99 101 101 95 94 98 100 101
17 13 11 12 11 15 38 68 86 92 91 93 99 97 91 86 65 48 70 101 104 102 104 97 84 73 62 52 47 44 42 36 28 25 26 29 36 35 24 14 12 13 14 14 12 12 12 12 13 13 12 11 10 8 7 10 17 26 35 44 51 59 68 79 92 99 101 104 104 97 92 93 94 95
13 11 11 14 12 20 50 80 92 95 95 94 95 92 92 87 65 52 76 104 106 103 103 95 83 71 59 52 49 46 46 43 36 34 35 37 40 34 22 14 13 13 14 14 12 12 13 13 13 13 12 12 11 10 8 7 9 14 21 30 38 45 52 61 76 90 99 104 104 98 89 83 81 81
12 12 14 18 20 32 60 85 94 96 97 95 90 90 95 89 65 58 85 107 105 102 102 93 80 69 58 53 51 50 51 50 48 48 47 46 43 34 22 16 14 14 15 14 12 12 13 13 13 12 12 12 12 11 10 8 6 8 11 16 23 31 38 44 54 70 86 97 102 99 93 86 79 72
15 21 24 31 43 60 79 93 98 99 100 99 93 94 101 91 65 63 90 106 103 103 102 90 77 68 60 57 56 56 58 60 61 60 56 51 45 36 26 19 15 15 15 14 13 13 12 12 13 12 12 12 12 12 12 10 8 6 6 9 13 19 26 31 35 45 61 79 92 97 96 94 88 79
27 46 51 55 69 85 94 99 101 100 101 101 98 101 105 90 67 71 95 105 102 104 100 87 76 68 63 61 63 64 67 69 69 67 61 55 49 41 32 23 17 16 16 15 14 14 12 12 12 12 12 12 12 11 11 11 11 9 6 5 7 10 15 20 23 27 36 52 70 84 90 92 91 88
50 79 86 84 90 98 100 100 101 101 100 99 100 105 105 90 77 86 101 103 101 104 98 84 74 68 65 67 70 73 76 77 75 72 67 60 54 47 39 30 22 18 17 16 15 15 15 14 13 13 13 13 12 12 11 11 11 11 9 7 5 6 8 12 15 18 22 30 44 61 74 80 83 84
82 98 101 99 100 100 100 100 101 101 98 96 100 105 103 95 92 98 101 100 102 104 94 81 74 71 70 74 77 80 82 83 82 80 76 68 61 55 47 38 30 23 19 18 18 18 18 19 18 17 16 15 14 13 12 12 11 11 11 10 8 6 6 7 9 12 15 20 28 39 51 63 69 74
104 104 101 101 101 99 100 100 100 100 99 98 101 104 102 99 100 101 100 100 104 102 92 80 77 77 76 77 81 84 86 87 87 86 82 77 71 64 58 51 41 32 24 21 21 22 23 25 26 25 24 22 20 17 15 14 13 11 11 11 11 10 8 7 6 7 9 12 18 24 32 43 51 59
107 103 101 101 100 100 100 100 100 101 101 101 103 102 100 100 102 101 99 101 104 100 89 81 82 83 80 79 83 87 90 91 90 88 86 83 80 75 71 66 59 49 38 28 25 25 28 31 35 37 37 35 29 23 19 17 15 14 12 11 10 11 11 10 9 8 7 7 10 14 19 26 34 43
103 102 102 102 101 100 100 100 100 100 102 104 104 102 101 101 102 101 99 101 104 98 86 83 87 87 81 80 86 94 98 99 96 91 86 82 79 76 73 71 69 65 58 49 41 36 35 37 41 45 47 44 36 29 25 22 18 15 13 12 12 12 13 13 13 12 10 8 7 8 10 14 20 28
101 102 102 102 101 100 99 100 100 100 103 106 106 104 102 102 102 100 99 102 104 95 83 82 87 85 78 77 83 88 90 85 78 72 68 64 62 61 59 59 60 60 61 60 58 53 49 46 44 45 46 46 44 41 36 27 19 15 14 13 13 14 14 15 15 14 14 13 11 8 7 8 11 16
101 103 102 100 100 99 99 100 101 103 105 106 105 103 103 102 101 100 100 102 102 92 80 78 81 76 68 64 63 63 61 57 52 50 49 47 46 45 44 44 45 46 48 51 54 56 56 54 51 50 49 49 51 50 42 28 18 15 14 13 13 14 15 15 15 15 15 16 16 15 12 9 7 8
101 101 101 100 99 99 100 101 103 105 107 105 102 102 102 101 99 99 100 102 100 91 79 74 73 68 60 55 51 49 47 47 47 48 47 45 44 43 41 40 39 38 38 40 44 49 54 56 57 57 56 53 53 49 37 24 16 15 14 14 14 14 14 14 14 14 14 15 18 20 20 19 15 11
102 100 99 100 99 99 101 102 102 105 107 105 102 102 102 99 97 97 100 103 100 91 80 73 69 65 61 58 55 52 51 51 52 53 53 52 51 49 48 46 43 39 36 36 37 43 49 55 59 60 59 59 57 45 29 18 16 16 15 15 14 14 14 14 14 14 14 16 19 22 25 29 32 29
101 100 99 100 100 100 101 100 100 102 104 103 103 102 101 100 99 99 100 103 101 93 82 76 72 69 66 65 64 61 60 60 60 61 62 61 59 59 57 54 51 46 41 36 34 37 45 54 59 60 63 63 54 36 21 17 17 17 16 15 15 15 15 15 16 16 16 18 23 28 32 38 44 45
99 100 100 100 99 99 100 101 102 103 102 102 103 102 100 100 101 100 100 101 102 97 87 81 79 76 73 72 72 70 69 69 70 71 72 72 71 70 67 64 59 53 47 41 35 33 40 50 57 62 64 57 41 25 19 19 19 18 17 16 16 16 16 16 19 22 23 25 31 38 45 51 55 55
Wind_Speed
53 53 54 55 55 55 54 53 52 52 51 51 51 51 52 52 53 54 53 51 51 52 50 50 50 50 50 50 50 49 51 49 45 45 47 50 51 49 50 52 61 85 88 76 81 85 81 82 82 79 80 82 88 90 86 90 100 103 99 91 81 73 70 71 75 80 88 96 102 98 84 79 84 84
51 51 51 52 52 51 50 49 48 47 47 47 48 48 49 49 50 52 52 50 51 52 50 48 48 49 49 48 49 49 49 48 44 43 45 49 51 49 50 52 61 84 89 79 83 88 85 86 88 87 84 79 81 85 83 87 97 103 103 98 90 86 78 71 70 73 81 93 104 104 89 77 81 82
49 49 49 50 49 46 45 45 45 45 45 44 45 46 46 47 47 50 51 50 50 51 50 47 46 47 48 48 48 48 48 46 43 42 42 46 50 49 49 50 60 84 90 80 81 84 85 89 91 92 91 84 78 78 80 84 88 91 100 106 101 95 87 79 76 72 73 83 95 105 98 80 76 78
48 47 48 47 45 43 42 43 43 43 43 42 43 44 45 45 45 48 50 49 49 50 50 47 46 46 47 47 48 47 46 44 42 41 40 44 48 49 49 49 60 84 91 81 78 80 84 92 94 95 95 90 85 81 81 84 82 75 78 91 103 107 101 93 90 83 75 75 79 93 103 91 74 71
46 46 46 45 43 42 41 40 40 40 41 40 41 42 44 45 45 47 48 48 48 49 49 47 45 45 46 47 47 46 44 42 41 40 40 41 45 47 48 48 59 85 93 84 78 76 80 87 89 92 94 93 91 88 85 87 89 85 78 75 82 97 106 103 100 93 84 80 75 79 95 100 85 72
45 44 44 43 42 42 40 39 39 38 39 39 39 41 44 44 44 45 47 48 47 48 48 46 44 44 45 46 45 44 42 40 39 39 39 40 42 45 48 48 58 84 94 87 81 76 75 77 77 80 86 90 93 91 87 89 92 95 97 89 76 80 92 98 101 100 95 91 83 75 84 97 95 82
44 43 42 42 42 42 40 38 39 38 37 37 37 39 43 44 43 44 46 47 47 47 46 44 43 44 44 44 44 42 40 39 38 38 38 39 40 42 46 48 56 80 94 89 83 78 74 73 72 71 73 79 88 93 91 92 93 94 99 100 88 79 82 85 90 97 102 100 90 77 77 87 90 85
43 42 41 42 43 42 40 38 39 38 37 37 36 37 41 43 43 43 44 45 46 45 44 43 42 42 42 42 41 40 39 37 36 36 37 37 39 40 44 47 53 73 92 92 85 80 78 76 73 69 68 69 76 84 88 90 92 95 99 99 92 85 84 84 85 90 96 100 95 82 76 78 83 85
42 41 41 42 43 43 41 39 39 38 37 36 35 35 38 43 43 42 43 44 45 44 42 42 41 41 41 40 39 38 37 36 34 35 36 36 38 38 40 45 50 65 86 94 89 83 81 79 74 70 68 68 69 72 75 80 85 93 102 100 91 86 88 90 90 90 91 92 92 89 81 76 80 86
41 40 41 42 43 44 42 40 39 38 36 35 34 34 36 41 42 41 41 43 43 43 41 41 40 40 39 38 38 37 34 33 33 34 35 35 36 37 38 41 47 59 80 93 92 86 82 80 76 72 69 69 71 70 67 70 78 87 95 94 86 83 84 84 86 88 91 89 89 91 87 79 81 88
41 40 41 41 43 43 43 42 40 38 36 34 34 33 34 38 41 40 40 41 42 42 40 40 39 39 37 36 36 35 33 32 32 33 34 34 35 35 36 38 43 55 74 90 95 90 84 80 77 75 72 70 73 74 71 69 72 79 84 83 79 78 78 78 78 79 83 87 88 91 90 82 81 89
41 41 41 42 43 44 43 42 41 39 37 34 33 33 33 36 40 39 39 40 41 40 39 39 38 37 35 34 34 33 32 30 31 31 32 33 35 35 35 36 40 50 66 84 95 94 88 83 80 77 75 74 74 75 76 77 76 78 83 83 78 75 75 76 76 75 76 79 82 86 87 83 81 88
42 42 42 42 44 45 44 42 41 41 39 36 34 33 32 34 38 39 37 38 39 39 38 38 37 35 34 34 33 32 31 29 29 30 31 33 34 34 35 36 37 44 58 77 92 97 92 87 83 79 76 75 73 72 75 80 81 82 85 86 82 77 74 73 74 75 75 76 76 79 83 82 80 86
43 42 42 42 44 46 46 44 41 41 41 38 36 34 32 32 36 38 37 37 38 38 38 37 36 35 33 33 32 31 30 29 28 29 30 32 34 34 35 36 35 39 52 69 86 95 95 90 85 81 78 74 71 70 73 79 82 81 83 85 84 81 78 75 72 72 73 73 75 78 80 81 79 82
44 43 42 42 43 46 47 46 43 41 41 40 37 35 32 31 34 38 37 36 37 37 37 37 36 34 33 32 31 30 29 28 28 29 30 31 33 34 35 36 35 37 45 60 77 89 94 94 89 84 81 76 73 70 72 79 83 82 82 83 85 85 83 79 75 72 70 69 71 75 77 77 76 78
45 44 43 41 42 44 46 46 45 42 41 40 38 35 32 31 33 37 37 36 36 36 36 36 35 34 33 32 31 30 29 28 28 28 29 30 32 34 36 36 34 34 38 50 67 79 88 94 93 89 84 80 76 73 72 77 83 84 84 84 86 88 87 83 79 76 73 71 69 70 71 72 72 73
45 44 43 41 41 43 45 46 45 43 41 41 39 35 32 31 32 36 37 36 35 35 36 36 35 33 33 32 31 30 29 28 27 27 27 29 31 33 36 35 34 33 34 42 55 69 80 90 95 92 88 84 80 77 75 75 78 81 85 85 86 89 88 85 83 81 79 77 75 73 72 71 72 72
46 45 43 41 41 42 44 44 44 43 42 41 39 36 33 31 31 35 37 36 35 35 35 35 34 33 33 33 32 30 29 27 27 26 26 27 30 32 34 34 33 32 33 37 47 59 70 82 91 94 93 90 86 82 79 76 74 76 83 86 87 88 88 85 83 82 81 79 76 74 74 74 75 75
46 45 43 42 41 41 42 43 43 42 42 41 38 36 34 31 31 34 37 36 35 35 35 34 33 33 33 33 32 30 29 27 26 25 25 26 27 30 31 31 31 32 32 33 40 50 60 70 81 91 96 96 93 89 84 80 76 75 80 85 87 87 87 85 82 80 80 80 78 75 75 76 77 77
46 45 43 42 41 41 42 43 43 42 41 40 38 36 35 32 31 33 37 37 36 35 35 34 33 33 33 34 33 31 29 27 26 25 25 24 25 26 28 29 29 31 31 32 36 44 52 60 70 83 94 99 98 95 89 84 80 77 78 84 88 90 90 89 87 83 80 82 82 78 78 80 81 79
46 45 43 42 41 40 41 43 43 42 40 39 38 37 35 33 31 33 37 38 36 36 35 34 33 33 33 34 34 32 30 28 27 26 25 25 25 24 25 26 27 27 28 29 33 39 46 53 62 74 88 97 99 98 94 88 83 80 78 82 88 92 93 92 93 89 85 84 85 83 82 84 85 83
46 45 43 42 41 40 41 44 44 42 40 38 38 37 36 34 31 33 37 38 36 36 35 34 33 33 34 35 35 33 32 30 28 27 27 26 26 25 25 24 24 24 25 27 30 34 41 48 56 67 81 92 98 100 98 94 89 84 81 80 85 91 94 95 96 94 89 86 87 87 86 87 89 87
46 45 43 42 40 40 42 44 44 41 39 37 38 37 36 34 32 33 37 38 36 36 35 34 34 33 34 36 36 35 33 32 30 29 28 27 26 26 25 24 23 23 24 26 28 31 37 43 51 61 73 84 93 99 101 99 94 90 85 81 82 87 92 95 97 97 92 89 89 91 90 89 89 86
46 45 43 42 41 40 42 44 44 41 38 37 38 37 36 35 33 33 36 37 36 35 35 34 34 33 33 36 37 36 35 34 32 30 28 28 27 26 25 24 23 24 25 26 28 30 34 38 45 54 65 76 85 93 99 102 100 95 90 85 82 83 88 94 98 99 95 91 92 95 95 93 90 86
45 44 43 42 41 41 42 44 44 40 37 37 38 37 36 36 34 32 35 37 36 35 34 35 34 33 34 36 38 38 36 34 33 31 30 29 28 27 27 25 24 24 25 27 28 29 30 33 38 46 57 67 75 84 93 100 103 101 96 91 86 83 84 89 95 99 99 95 94 97 99 97 94 89
45 44 42 42 41 41 42 44 44 41 38 37 37 37 37 37 34 33 35 38 36 34 34 35 34 33 34 36 38 38 37 35 34 32 30 29 28 28 28 26 25 24 25 26 27 26 26 26 29 36 46 57 66 75 85 95 101 104 102 97 93 88 84 85 89 95 98 98 98 99 101 101 99 95
44 43 42 42 42 42 43 45 45 42 39 38 37 37 38 37 34 33 35 37 36 35 34 34 35 34 34 35 37 37 37 36 35 32 30 29 29 29 28 26 24 23 24 24 24 22 21 20 21 26 35 46 58 68 78 88 97 103 104 103 100 95 89 85 86 89 94 98 101 103 104 104 105 103
44 43 42 42 42 42 43 45 45 43 41 39 38 38 38 37 35 33 35 37 36 35 34 34 35 34 34 35 36 37 37 37 34 32 31 30 29 29 28 26 23 22 23 22 21 18 16 15 14 16 21 32 46 59 71 83 92 99 103 105 105 102 96 90 86 86 90 94 99 103 105 105 106 105
43 42 42 43 43 43 44 46 46 44 42 40 39 39 39 38 35 33 35 37 36 34 34 35 35 34 34 34 35 35 36 36 35 33 32 31 30 30 29 26 23 22 23 22 20 17 15 13 11 11 12 17 29 44 60 74 86 94 100 103 105 106 103 97 91 87 88 91 95 99 102 103 103 102
43 42 42 43 43 43 44 46 46 44 43 41 39 39 39 37 35 33 35 36 36 35 36 36 35 34 34 33 34 34 35 35 35 34 33 32 31 30 29 26 24 23 23 23 21 19 16 14 13 11 10 11 15 26 42 59 75 86 94 99 103 104 104 103 100 94 90 90 93 96 99 100 100 99
42 42 42 43 44 44 44 46 46 44 43 42 40 39 39 37 35 33 35 36 36 36 37 36 35 34 33 33 33 33 33 34 34 33 32 32 31 30 29 27 25 25 25 24 23 21 19 17 15 14 13 11 11 14 23 39 57 73 84 91 96 99 101 103 104 103 98 94 94 96 98 100 100 100
42 43 43 43 44 44 45 46 46 45 43 42 40 39 38 37 35 34 36 37 37 37 36 35 34 33 33 32 32 32 32 32 32 32 31 31 30 30 29 28 27 26 26 25 25 23 21 19 18 17 15 14 13 12 13 21 37 54 68 79 87 93 96 98 102 105 106 102 99 98 99 100 101 102
41 43 43 44 44 45 45 45 45 44 43 42 40 38 38 37 36 35 36 37 37 37 36 35 34 33 32 31 31 31 31 31 30 30 30 30 29 29 29 29 28 28 27 26 26 25 24 22 21 19 18 17 16 15 13 14 20 33 49 63 74 83 89 92 95 101 106 108 106 104 102 101 101 102
41 42 44 44 44 45 45 45 45 44 43 42 40 38 37 37 36 35 36 38 38 37 36 34 33 33 32 31 31 30 30 30 29 29 29 29 29 29 29 29 29 29 28 27 26 26 25 24 23 22 21 20 19 18 17 15 14 18 29 43 57 68 78 84 88 92 99 106 110 110 108 106 104 103
41 42 44 44 44 44 45 45 46 45 44 43 40 38 38 37 36 36 37 39 39 37 35 34 34 33 32 31 31 30 30 29 28 28 28 28 28 28 29 29 29 29 29 28 27 26 25 25 24 23 22 22 21 20 19 18 16 15 17 25 36 49 62 72 80 85 92 100 107 112 113 112 110 108
40 41 43 43 44 45 45 46 46 46 45 43 41 39 38 37 37 37 39 40 39 37 36 35 34 32 32 31 31 30 29 28 27 27 27 27 26 27 27 28 29 29 29 28 27 26 25 24 24 23 23 22 22 22 21 20 19 18 16 17 21 29 41 54 66 76 84 92 100 107 112 114 114 113
37 39 40 42 43 44 45 46 46 46 45 43 41 40 39 38 38 39 40 41 39 38 36 35 33 32 32 32 31 30 29 28 28 27 26 26 25 25 26 26 27 28 29 28 27 26 25 24 23 23 23 22 23 24 23 21 21 20 19 18 17 19 24 33 45 57 69 80 90 98 105 110 112 113
34 36 38 40 42 42 43 45 46 45 44 43 41 40 40 40 40 41 42 41 40 39 37 35 33 33 33 32 31 30 29 27 27 26 26 25 25 24 25 25 25 26 27 27 27 26 25 23 22 22 22 23 24 25 24 22 22 22 21 20 20 19 21 24 29 36 46 59 71 82 91 99 105 109
32 33 35 37 39 40 42 44 45 44 43 41 40 40 41 41 43 44 44 43 42 40 38 36 34 34 33 32 31 29 28 27 26 26 25 24 24 24 24 24 24 25 25 26 26 26 25 24 23 23 23 24 24 24 23 22 22 22 22 22 22 23 24 26 27 28 32 39 49 60 71 81 90 97
30 32 33 35 37 39 42 44 44 43 41 39 38 40 42 43 45 46 45 44 43 41 39 37 36 35 34 33 32 30 29 28 27 26 25 24 24 23 23 23 23 24 24 25 25 25 25 25 25 25 24 24 23 23 23 24 24 24 24 25 25 25 26 28 29 31 32 33 37 43 53 63 72 80
29 31 32 34 37 40 42 43 42 41 39 38 37 40 44 46 47 47 46 45 44 42 40 38 37 36 35 34 33 31 30 28 27 25 24 24 24 23 22 22 22 22 23 23 24 25 25 26 26 25 25 24 23 22 23 24 26 26 26 26 27 27 27 29 31 33 34 36 36 38 42 48 56 65
28 30 32 35 38 40 42 41 40 38 37 37 37 40 45 48 49 48 47 45 43 42 41 39 37 37 36 34 33 32 30 28 27 25 25 24 24 23 22 22 22 21 21 22 22 23 23 24 25 25 26 25 24 23 23 24 26 28 28 27 27 27 28 30 32 34 36 38 39 39 39 40 44 51
26 29 33 36 38 39 39 39 37 36 36 36 37 40 46 50 50 48 46 45 44 43 41 39 38 37 36 34 33 32 31 29 27 26 26 25 24 24 23 23 22 22 22 21 21 21 21 23 24 25 26 26 24 23 23 24 25 27 27 26 26 27 29 30 32 35 37 38 40 41 41 40 40 42
24 28 33 36 37 37 37 37 36 35 35 36 38 41 46 50 50 48 46 45 44 43 42 40 39 38 36 35 34 33 31 30 29 28 27 27 26 25 25 24 24 24 23 23 22 21 21 22 23 24 25 25 25 24 23 23 24 25 26 25 24 26 28 29 31 33 35 37 38 40 41 41 41 41
24 27 31 35 36 36 36 36 35 35 35 36 38 42 47 49 49 48 47 45 45 44 42 41 40 38 37 36 35 34 32 31 30 29 29 28 27 27 27 26 26 26 26 25 24 23 22 21 22 23 24 24 24 23 22 21 21 22 23 22 21 22 24 25 26 28 31 34 35 36 37 38 38 39
Wind_Direction
290 291 290 288 287 285 284 283 283 281 279 275 270 264 261 258 255 252 250 250 253 256 258 259 259 258 257 256 256 255 255 258 260 261 262 262 262 263 257 249 230 211 203 202 207 211 213 211 210 204 196 195 199 205 208 206 207 211 212 212 216 221 220 214 212 213 214 215 214 213 213 210 211 217
290 291 290 288 285 285 284 285 284 283 281 276 270 264 259 257 254 250 248 248 251 254 256 258 258 258 257 256 256 256 256 259 260 259 261 262 263 262 256 246 226 209 202 200 204 212 214 211 211 209 202 196 196 200 202 205 208 213 217 217 219 222 219 209 207 211 213 213 212 213 214 209 208 214
290 291 290 287 285 283 284 285 285 285 283 278 271 264 258 255 252 249 246 245 248 253 255 257 259 257 257 256 256 257 257 259 260 259 260 260 262 262 255 245 224 208 202 198 198 204 208 209 210 210 209 206 201 198 198 202 206 212 220 224 225 227 224 215 213 214 213 213 214 215 215 209 205 212
289 290 290 287 284 282 283 285 286 285 284 281 273 264 256 254 251 247 245 242 244 250 253 256 258 257 257 256 256 256 256 258 259 259 259 257 260 261 254 244 223 207 201 198 196 196 201 205 206 208 210 210 208 205 203 205 204 203 209 218 224 228 228 224 223 222 217 213 214 216 217 211 206 210
288 289 289 285 281 281 282 284 286 286 284 282 275 265 256 252 250 246 244 240 241 248 251 254 256 257 257 256 256 256 256 257 258 259 258 255 257 258 253 244 223 207 202 200 198 194 195 197 199 202 204 206 208 209 210 211 210 207 207 209 212 220 226 228 227 225 220 215 214 216 216 214 211 211
286 288 288 283 278 278 281 284 286 287 285 282 277 268 257 252 249 246 243 240 239 244 250 252 255 256 256 255 255 255 255 257 257 257 257 254 253 255 252 244 224 210 205 203 201 196 193 192 191 193 197 199 202 204 207 210 211 212 216 217 212 208 214 222 226 226 225 221 217 215 215 216 215 215
284 286 285 280 275 276 280 284 286 287 286 283 279 271 259 252 249 246 244 241 238 242 248 252 253 255 255 255 254 254 254 256 256 255 255 252 251 251 250 244 226 213 209 206 203 201 198 194 190 188 190 192 196 199 201 206 209 211 216 220 218 212 210 213 217 221 224 223 221 217 216 217 216 215
281 283 282 277 274 274 277 281 285 286 286 284 281 274 261 252 249 246 244 242 240 241 246 251 253 254 255 254 253 253 253 255 255 254 253 250 248 249 248 244 230 216 211 208 206 206 204 200 196 193 190 188 191 194 195 199 204 210 215 218 219 220 220 219 218 218 220 222 222 219 218 219 215 212
278 279 278 274 272 273 274 277 282 284 285 285 283 277 264 252 248 247 245 243 241 241 245 249 252 254 254 253 252 252 253 254 253 252 252 249 246 246 247 244 233 220 214 211 210 209 206 203 202 201 199 194 190 190 190 192 197 205 213 217 219 221 223 226 226 225 224 222 222 220 220 223 218 210
275 275 274 272 271 271 272 274 278 282 285 285 284 281 268 253 248 247 246 244 242 242 244 248 252 253 253 251 251 252 251 252 251 249 249 247 244 244 245 244 235 224 216 213 212 209 206 206 207 206 204 200 197 195 192 192 196 203 209 213 216 218 220 224 227 228 229 227 223 220 221 225 222 211
271 272 270 269 268 270 271 271 274 278 283 285 283 282 273 256 248 247 248 245 243 242 244 248 252 253 252 250 250 251 250 249 248 247 246 245 243 242 244 244 238 227 218 215 213 211 209 208 208 208 207 204 202 201 199 199 200 204 208 211 215 218 219 222 224 224 226 228 226 223 222 224 225 216
268 268 267 265 265 267 269 269 270 273 279 283 281 280 276 260 248 247 248 246 244 243 244 248 251 252 252 250 250 251 250 247 245 244 243 242 241 241 242 244 240 230 221 217 215 214 212 210 209 209 208 206 204 202 202 204 206 208 213 216 218 220 221 222 224 222 223 226 226 225 223 224 225 219
266 266 265 263 262 264 266 268 269 269 273 279 279 278 276 264 250 246 247 246 244 243 244 248 251 251 251 250 249 250 249 246 243 241 241 241 241 241 242 243 242 234 225 219 217 215 213 211 210 210 209 206 205 204 201 204 208 211 215 217 217 219 221 222 222 223 224 226 227 225 222 224 226 222
263 264 264 263 262 261 262 265 268 268 268 273 276 276 276 267 252 245 246 246 244 243 245 248 250 251 250 249 249 250 248 245 242 239 239 240 240 241 241 241 241 238 230 222 218 217 215 213 211 211 210 208 207 206 203 203 207 209 211 215 217 218 220 220 220 220 221 224 227 227 224 224 227 226
261 262 263 263 262 261 260 262 265 267 266 268 272 274 275 269 254 244 244 246 244 243 244 247 250 250 249 249 248 248 246 243 241 239 238 239 240 242 242 240 240 239 234 227 222 220 218 216 214 214 214 212 210 209 205 203 206 207 207 211 215 216 216 218 217 216 217 218 221 225 224 224 226 230
259 260 262 262 262 261 259 259 261 265 265 264 267 270 272 269 256 243 242 245 243 242 243 246 248 249 248 248 247 246 245 243 241 241 239 239 240 242 242 242 240 239 237 232 226 224 222 220 218 217 216 213 213 212 207 203 204 206 205 207 211 213 214 215 215 215 216 216 218 223 225 224 225 229
257 259 260 261 262 260 258 257 258 261 262 261 262 266 267 266 256 243 241 244 243 240 242 244 246 247 247 247 246 244 243 242 241 240 240 239 239 241 242 242 242 240 238 235 230 227 224 222 221 219 217 214 215 215 211 206 204 204 203 204 207 210 212 214 215 216 218 220 222 226 228 229 229 231
255 257 258 260 260 259 257 256 255 257 259 258 258 261 263 263 256 244 239 242 243 240 241 242 244 245 245 245 244 242 241 240 239 239 239 239 239 240 241 241 242 241 239 236 232 228 227 226 224 222 219 216 217 218 216 212 209 205 203 204 207 210 211 213 215 217 219 221 223 226 229 231 233 234
253 255 256 258 258 258 256 254 252 253 256 256 255 257 259 259 256 244 238 240 242 240 240 241 242 243 244 243 242 240 238 236 235 235 236 236 237 238 239 240 240 240 239 237 233 229 229 229 227 225 222 220 220 220 219 217 214 209 205 205 209 212 213 213 215 218 220 221 223 225 228 229 232 233
252 253 254 256 256 256 253 251 249 251 253 254 253 254 255 255 254 245 237 238 241 240 239 239 240 241 242 241 240 238 236 233 231 231 231 232 234 236 237 237 238 237 237 237 234 230 229 230 229 227 224 223 222 221 221 219 217 213 208 207 210 215 217 217 217 219 222 224 226 227 227 227 229 230
251 252 253 254 255 254 251 248 247 249 251 251 251 252 252 252 252 244 236 235 239 239 237 237 238 239 240 240 238 236 234 231 228 228 229 231 233 236 237 238 238 237 236 237 235 232 230 230 229 228 226 224 224 223 222 221 219 216 212 209 211 215 218 220 222 223 225 226 228 228 226 226 227 227
251 251 251 252 253 252 248 246 246 247 249 249 249 250 249 249 249 244 236 234 237 238 236 236 237 237 238 238 236 234 232 230 227 227 229 233 236 239 240 241 240 239 237 237 236 233 232 230 229 228 227 226 226 225 224 223 221 220 216 212 210 213 217 221 225 227 226 226 227 226 225 224 225 224
250 250 250 251 251 249 246 244 244 245 247 247 247 248 247 246 247 243 235 232 235 236 234 235 235 235 236 237 235 233 231 230 228 228 231 236 239 242 243 243 241 240 238 238 237 235 233 232 230 228 227 227 228 228 226 225 223 222 220 215 212 212 214 219 224 228 228 225 224 224 221 218 217 217
249 249 249 249 249 246 243 243 242 243 244 244 244 245 245 243 244 243 236 231 233 234 233 233 234 234 234 235 235 232 230 230 230 230 233 238 242 245 245 243 240 239 239 238 239 238 237 235 233 230 228 227 228 229 228 227 225 224 222 219 215 213 213 215 220 225 227 224 223 223 221 216 212 211
247 248 248 247 246 244 241 240 240 241 242 242 242 243 242 241 243 242 235 230 231 232 231 232 234 234 233 234 234 232 230 230 230 231 233 238 243 246 245 242 238 237 237 239 240 242 242 240 237 233 230 228 228 229 229 228 227 226 224 222 219 216 214 214 215 219 223 223 223 224 223 219 214 211
246 246 246 246 244 242 240 239 238 239 239 240 241 240 239 239 241 240 232 229 230 230 228 231 233 233 232 233 233 232 231 230 231 231 233 237 243 246 244 240 237 235 236 239 242 245 246 244 240 235 232 230 229 228 228 229 229 228 227 225 223 220 218 216 214 215 218 220 221 223 224 222 217 214
245 245 245 244 242 240 238 237 236 237 238 239 239 238 238 238 239 237 231 227 228 227 226 229 232 232 232 233 233 232 230 231 232 232 234 237 242 245 243 239 235 233 234 237 241 245 247 246 243 237 232 230 229 228 227 227 228 229 228 227 225 224 223 221 218 216 216 217 218 221 223 223 222 222
244 244 243 242 241 239 236 235 235 235 236 237 236 236 236 236 236 235 229 225 226 224 224 227 230 231 231 232 232 231 229 230 232 233 235 238 242 243 242 237 231 229 230 233 236 237 239 240 243 243 236 231 230 228 227 227 227 229 229 229 228 227 226 224 222 220 218 217 217 219 222 224 225 226
244 242 240 240 239 237 234 233 233 233 234 235 234 234 234 233 234 232 226 224 223 221 222 225 228 229 230 231 231 230 229 229 230 232 234 237 240 240 237 232 226 224 226 228 229 229 230 234 242 249 248 240 233 229 227 226 226 227 229 230 229 229 228 227 225 224 222 220 219 220 221 224 226 227
242 240 238 237 237 235 232 232 232 233 233 233 233 233 233 232 232 229 224 221 220 218 220 224 227 228 229 230 230 229 227 227 228 230 232 234 236 235 233 228 222 220 222 225 227 228 230 235 243 252 257 258 248 236 228 226 225 227 228 229 230 231 230 228 226 225 225 223 222 222 223 224 226 228
239 237 235 234 234 232 230 230 231 231 231 232 231 231 231 230 229 226 221 218 217 216 218 222 225 227 228 228 227 227 225 225 225 227 229 231 231 230 228 225 220 219 221 224 226 230 233 238 244 252 258 264 266 256 238 228 225 225 227 229 230 231 231 230 227 226 226 225 224 224 224 225 226 228
235 234 233 232 232 230 228 228 229 229 229 230 230 229 228 228 227 223 218 216 215 215 217 221 224 226 226 225 224 223 221 220 221 222 225 227 228 226 224 222 220 220 222 224 227 230 234 240 246 252 259 263 266 268 259 239 227 224 225 227 229 231 231 231 229 227 227 226 226 225 226 226 227 228
232 231 231 230 229 228 227 226 227 227 227 227 228 227 226 226 225 220 216 214 214 213 216 219 222 223 223 221 220 218 216 215 216 219 221 223 224 224 223 222 220 220 223 226 228 231 235 240 246 253 258 262 265 266 266 259 241 229 225 225 227 229 231 231 230 229 228 227 227 227 227 228 229 230
228 227 229 228 227 226 225 224 224 224 223 223 224 223 222 223 223 218 213 212 212 212 214 217 219 219 219 218 216 213 212 213 214 216 218 220 222 223 224 223 221 222 224 227 230 233 236 240 245 251 255 258 261 262 261 262 259 243 231 227 226 226 228 229 229 229 228 228 228 228 228 229 230 231
225 224 226 227 226 225 224 223 222 220 220 220 219 218 218 220 219 215 211 210 210 210 212 215 216 216 214 214 213 211 210 211 212 214 216 218 220 222 225 226 224 224 225 228 231 234 238 242 244 248 253 255 256 256 256 255 257 255 245 234 229 227 227 226 226 226 226 227 228 228 229 229 231 232
226 225 226 226 225 224 222 221 219 218 218 217 215 214 213 214 214 212 210 209 208 209 211 213 213 212 211 211 211 210 209 209 210 212 214 217 219 222 225 227 228 227 227 228 231 234 238 242 245 247 250 251 252 251 250 249 249 250 249 245 238 234 231 228 227 225 225 225 226 227 228 229 230 231
227 226 226 226 225 223 220 218 216 216 216 215 213 211 209 208 208 209 208 206 206 207 209 210 210 209 209 210 210 209 208 208 209 211 213 216 218 221 225 228 231 232 231 230 231 234 237 240 243 246 248 248 248 247 246 245 244 244 245 246 245 243 239 235 232 229 227 226 225 225 226 227 228 229
226 225 224 224 224 221 217 214 212 212 213 213 211 209 206 203 204 205 205 204 205 206 207 207 207 206 207 209 209 209 208 208 209 211 213 216 218 221 225 228 233 236 236 235 234 234 235 237 239 242 245 246 247 247 246 245 244 245 245 246 247 247 247 244 240 235 232 230 228 227 227 227 227 227
220 220 220 221 221 217 212 209 208 209 210 210 209 207 203 201 201 203 203 203 204 204 204 204 203 204 205 207 208 209 209 210 211 212 214 217 219 222 225 228 232 236 239 241 240 239 238 238 238 239 242 244 247 250 250 249 248 247 248 248 248 247 246 246 243 240 236 233 232 231 230 229 228 227
216 215 216 217 215 210 206 205 206 207 208 207 207 205 201 198 200 202 202 202 203 203 202 201 201 202 203 204 206 207 208 208 209 210 212 215 218 221 224 227 230 234 237 240 243 243 243 243 242 241 242 244 247 251 254 254 252 250 248 248 247 245 243 242 242 240 238 236 234 232 231 231 231 231
215 213 212 210 207 203 202 203 205 206 206 204 203 202 199 197 199 201 201 202 203 202 201 200 199 200 201 202 203 205 206 206 207 209 211 214 216 218 221 225 228 231 234 237 241 243 245 247 247 247 247 246 246 249 252 254 254 253 253 252 251 248 244 242 240 238 237 236 236 234 232 231 231 231
211 209 206 204 201 200 201 202 204 205 205 202 201 201 199 198 199 200 200 201 203 202 201 200 200 200 201 202 203 205 206 207 209 211 213 217 219 220 223 226 229 232 235 238 241 243 245 246 248 249 250 250 249 249 250 253 254 256 257 257 257 255 251 247 243 240 237 235 235 234 233 232 230 229
209 205 201 199 199 199 201 203 203 204 204 201 199 199 200 200 199 199 199 201 203 203 202 202 202 202 203 203 206 208 209 210 213 215 218 222 223 225 228 230 232 235 239 241 244 246 247 247 247 248 250 252 254 253 251 251 254 258 260 261 261 261 259 254 249 244 240 237 234 234 233 232 231 229
208 205 201 200 200 201 202 203 204 204 204 201 199 199 200 200 199 199 199 202 204 204 204 204 204 205 206 207 210 212 214 216 218 221 224 226 228 231 233 235 237 239 241 243 246 248 248 247 246 246 248 251 253 253 252 253 255 259 262 263 264 262 260 257 252 247 243 239 236 234 233 232 232 231
207 206 204 203 202 203 204 204 204 205 204 201 200 200 200 200 199 199 200 202 205 205 206 207 208 208 209 211 214 217 219 221 224 226 229 232 234 236 238 240 241 243 243 244 246 248 249 248 245 244 246 247 248 248 250 252 254 257 261 264 264 260 257 253 249 245 241 238 235 234 233 232 232 233